Seretse Khama, Botswana

11:34 AM CAT on January 22, 2018 (GMT +0200)
Seretse Khama

Weather History for FBSK - August, 2013

Change the Weather History Date:

Thursday, August 1, 2013

  Actual Average Record
Temperature  
Mean Temperature 55 °F -  
Max Temperature 68 °F 75 °F 84 °F (1996)
Min Temperature 42 °F 45 °F 28 °F (2015)
Degree Days  
Heating Degree Days 10    
Growing Degree Days 5 (Base 50)    
Moisture  
Dew Point 30 °F    
Average Humidity 40    
Maximum Humidity 61    
Minimum Humidity 24    
Precipitation  
Precipitation 0.00 in - - ()
Sea Level Pressure  
Sea Level Pressure 30.47 in    
Wind  
Wind Speed 6 mph ()    
Max Wind Speed 13 mph    
Max Gust Speed -    
Visibility 6.2 miles    
Events      
Averages and records for this station are not official NWS values.
T = Trace of Precipitation, MM = Missing Value Source: Averaged Metar Reports

Daily Weather History Graph

Daily Weather History Graph

Search for Another Location

Airport or City:

Trip Planner

Search our weather history database for the weather conditions in past years. The results will help you decide how hot, cold, wet, or windy it might be!

Date:

Astronomy

Aug. 01, 2013 Rise Set
Actual Time 6:52 AM CAT 5:52 PM CAT
Civil Twilight 6:28 AM CAT 6:16 PM CAT
Nautical Twilight 6:01 AM CAT 6:43 PM CAT
Astronomical Twilight 5:34 AM CAT 7:11 PM CAT
Moon 2:25 AM CAT (8/1) 1:31 PM CAT (8/1)
Length of Visible Light 11h 47m
Length of Day
10h 59m
Waning Crescent, 25% of the Moon is Illuminated
Aug 1
Waning Crescent
Aug 6
New
Aug 14
First Quarter
Aug 21
Full
Aug 28
Last Quarter

Hourly Weather History & Observations

Time (CAT) Temp. Windchill Dew Point Humidity Pressure Visibility Wind Dir Wind Speed Gust Speed Precip Events Conditions
12:00 AM 48.2 °F - 21.2 °F 34% 30.48 in - SE 10.4 mph - N/A   Clear
1:00 AM 48.2 °F - 21.2 °F 34% 30.48 in - East 6.9 mph - N/A   Clear
2:00 AM 46.4 °F 43.5 °F 23.0 °F 40% 30.48 in - ESE 5.8 mph - N/A   Clear
3:00 AM 44.6 °F 41.4 °F 23.0 °F 43% 30.48 in - SE 5.8 mph - N/A   Clear
4:00 AM 42.8 °F 38.6 °F 26.6 °F 53% 30.48 in - SSE 6.9 mph - N/A   Clear
5:00 AM 42.8 °F 39.3 °F 28.4 °F 57% 30.48 in - SSE 5.8 mph - N/A   Clear
6:00 AM 42.8 °F 39.3 °F 28.4 °F 57% 30.48 in - SSE 5.8 mph - N/A   Clear
7:00 AM 42.8 °F 39.3 °F 30.2 °F 61% 30.51 in - SSE 5.8 mph - N/A   Clear
8:00 AM 48.2 °F - 32.0 °F 54% 30.54 in - Variable 1.2 mph - N/A   Clear
9:00 AM 55.4 °F - 33.8 °F 44% 30.54 in - East 3.5 mph - N/A   Clear
10:00 AM 59.0 °F - 37.4 °F 45% 30.54 in - ENE 8.1 mph - N/A   Clear
11:00 AM 62.6 °F - 35.6 °F 37% 30.54 in 6.2 mi NNE 8.1 mph - N/A   Partly Cloudy
12:00 PM 62.6 °F - 35.6 °F 37% 30.51 in 6.2 mi ENE 6.9 mph - N/A   Scattered Clouds
1:00 PM 66.2 °F - 32.0 °F 28% 30.45 in 6.2 mi ENE 12.7 mph - N/A   Scattered Clouds
2:00 PM 68.0 °F - 32.0 °F 26% 30.42 in 6.2 mi East 11.5 mph - N/A   Partly Cloudy
3:00 PM 68.0 °F - 30.2 °F 24% 30.42 in 6.2 mi Variable 6.9 mph - N/A   Partly Cloudy
4:00 PM 68.0 °F - 30.2 °F 24% 30.42 in 6.2 mi ENE 12.7 mph - N/A   Partly Cloudy
5:00 PM 68.0 °F - 30.2 °F 24% 30.42 in 6.2 mi ENE 11.5 mph - N/A   Partly Cloudy
6:00 PM 62.6 °F - 30.2 °F 30% 30.42 in 6.2 mi NNE 3.5 mph - N/A   Partly Cloudy
7:00 PM 59.0 °F - 30.2 °F 34% 30.42 in 6.2 mi NE 4.6 mph - N/A   Partly Cloudy
8:00 PM 57.2 °F - 30.2 °F 36% 30.45 in - North 2.3 mph - N/A   Clear
9:00 PM 57.2 °F - 32.0 °F 38% 30.45 in - North 2.3 mph - N/A   Clear
10:00 PM 53.6 °F - 32.0 °F 44% 30.45 in - ENE 3.5 mph - N/A   Clear
11:00 PM 50.0 °F - 32.0 °F 50% 30.45 in - SSE 6.9 mph - N/A   Clear